Flag for Germany Weather past 2 weeks in Mülheim, North Rhine-Westphalia, Germany

Now
68 °F

Passing clouds.


Feels Like: 68 °F
Forecast: 47 / 69 °F
Wind: 5 mph from Northwest

Location: Koeln / Bonn

Current Time: May 22, 2015 at 5:08:52 PM

Latest Report: May 22, 2015 at 4:20 PM


Visibility: N/A

Pressure: 30.24 "Hg

Humidity: 33%

Dew point: 37 °F

Location of MülheimLocation

Historic Weather in Mülheim — Graph

°F

Mülheim temperature yesterday

Maximum temperature yesterday: 63 °F (at 3:20 PM)
Minimum temperature yesterday: 41 °F (at 2:20 AM)
Average temperature yesterday: 52 °F

Past Weeks' High & Low Weather Summary

 TemperatureHumidityPressure
High79 °F (May 11, 4:50 PM)94% (May 15, 7:20 AM)30.36 "Hg (May 15, 7:20 AM)
Low39 °F (May 17, 4:50 AM)26% (May 14, 3:50 PM)29.65 "Hg (May 18, 7:20 PM)
Average57 °F62%30.07 "Hg
* Reported May 7 3:20 PM — May 22 3:50 PM, Mülheim, Weather by CustomWeather, © 2015

Note: Actual official high and low records may vary slightly from our data, if they occured in-between our weather recording intervals... More about our weather records

Advertising

Mülheim weather history for previous 24 hours

 ConditionsComfort  
Time TempWeatherWind HumidityBarometerVisibility
3:50 PM
Fri, May 22
66 °FSunny.7 mph32%30.24 "Hg10 mi
3:20 PM68 °FPassing clouds.6 mph30%30.24 "HgN/A
2:50 PM68 °FPassing clouds.5 mph30%30.24 "HgN/A
2:20 PM68 °FPassing clouds.7 mph33%30.27 "HgN/A
1:50 PM68 °FSunny.3 mph30%30.27 "Hg10 mi
1:20 PM64 °FPassing clouds.5 mph32%30.27 "HgN/A
12:50 PM64 °FSunny.1 mph32%30.30 "Hg10 mi
12:20 PM64 °FPassing clouds.5 mph32%30.30 "HgN/A
11:50 AM63 °FScattered clouds.5 mph39%30.30 "HgN/A
11:20 AM61 °FPartly sunny.5 mph42%30.33 "HgN/A
10:50 AM59 °FPartly sunny.3 mph48%30.33 "HgN/A
10:20 AM59 °FSunny.5 mph55%30.33 "Hg10 mi
9:50 AM57 °FSunny.1 mph59%30.33 "Hg10 mi
9:20 AM55 °FSunny.2 mph67%30.33 "Hg10 mi
8:50 AM55 °FSunny.2 mph63%30.33 "Hg10 mi
8:20 AM54 °FSunny.2 mph72%30.33 "Hg10 mi
7:50 AM52 °FSunny.3 mph77%30.33 "Hg10 mi
7:20 AM50 °FSunny.2 mph82%30.33 "Hg10 mi
6:50 AM48 °FSunny.2 mph87%30.33 "Hg10 mi
6:20 AM48 °FClear.2 mph82%30.33 "Hg10 mi
5:50 AM48 °FClear.2 mph82%30.33 "Hg10 mi
5:20 AM48 °FClear.2 mph82%30.33 "Hg10 mi
4:50 AM48 °FClear.1 mph82%30.33 "Hg10 mi
4:20 AM48 °FClear.2 mph82%30.33 "Hg10 mi
3:50 AM48 °FClear.2 mph76%30.33 "Hg10 mi
3:20 AM48 °FClear.3 mph76%30.33 "Hg10 mi
2:50 AM48 °FClear.1 mph76%30.33 "Hg10 mi
2:20 AM50 °FClear.2 mph71%30.33 "Hg10 mi
1:50 AM50 °FClear.3 mph71%30.33 "Hg10 mi
1:20 AM52 °FClear.5 mph72%30.33 "Hg10 mi
12:50 AM54 °FClear.6 mph67%30.33 "Hg10 mi
12:20 AM54 °FClear.3 mph67%30.33 "Hg10 mi
11:20 PM
Thu, May 21
55 °FClear.5 mph63%30.33 "Hg10 mi
10:50 PM55 °FClear.2 mph63%30.33 "Hg10 mi
10:20 PM55 °FSunny.2 mph59%30.30 "Hg10 mi
9:50 PM55 °FSunny.2 mph59%30.30 "Hg10 mi
9:20 PM55 °FSunny.1 mph59%30.30 "Hg10 mi
8:50 PM57 °FSunny.2 mph55%30.30 "Hg10 mi
8:20 PM59 °FSunny.3 mph51%30.30 "Hg10 mi
7:50 PM59 °FSunny.5 mph48%30.27 "Hg10 mi
7:20 PM59 °FSunny.7 mph48%30.27 "Hg10 mi
6:50 PM61 °FSunny.8 mph42%30.27 "Hg10 mi
6:20 PM63 °FSunny.10 mph42%30.27 "Hg10 mi
5:50 PM63 °FSunny.8 mph42%30.27 "Hg10 mi
5:20 PM61 °FSunny.8 mph45%30.27 "Hg10 mi
Weather by CustomWeather, © 2015

See weather overviewHow to use our weather pages